Location: Asheville, NC
(35.6000°N, 82.5500°W)
Time: 06:39:50
(UTC-04:00)

DUCHIFAT 1 - Visible Passes

Search period start: 22 July 2018 00:00
Search period end: 01 August 2018 00:00
Orbit: 587 x 607 km, 97.9° (Epoch: 21 July)

Date Brightness Start Highest point End Pass type
(mag) Time Alt. Az. Time Alt. Az. Time Alt. Az.
22 Jul ? 02:20:05 10° N 02:21:39 21° N 02:21:39 21° N visible
23 Jul ? 02:30:20 10° N 02:31:49 20° NNW 02:31:49 20° NNW visible
24 Jul ? 02:40:40 10° NNW 02:41:59 17° NNW 02:41:59 17° NNW visible
25 Jul ? 01:15:13 10° NE 01:15:28 11° NE 01:15:28 11° NE visible
25 Jul ? 02:51:04 10° NNW 02:52:09 15° NNW 02:52:09 15° NNW visible
26 Jul ? 01:25:04 10° NNE 01:25:38 13° NE 01:25:38 13° NE visible
26 Jul ? 03:01:37 10° NNW 03:02:18 12° NW 03:02:18 12° NW visible
27 Jul ? 01:35:00 10° NNE 01:35:47 15° NNE 01:35:47 15° NNE visible
27 Jul ? 03:12:25 10° NW 03:12:28 10° NW 03:12:28 10° NW visible
28 Jul ? 01:45:00 10° NNE 01:45:57 16° NNE 01:45:57 16° NNE visible
29 Jul ? 01:55:04 10° NNE 01:56:06 17° NNE 01:56:06 17° NNE visible
30 Jul ? 02:05:10 10° N 02:06:16 18° N 02:06:16 18° N visible
31 Jul ? 02:15:20 10° N 02:16:25 17° N 02:16:25 17° N visible
